DW6757 Weather Reports


Display with metric or nautical units.
time (UTC)temp
F
wind
direction
speed
MPH
gust
MPH
rain 1hr
in
rain 24hr
in
rain mn
in
humidity
%
barometer
mb
20260507004005 69 18 6.0 15.0 0.00 0.00 0.00 75 1011.1
20260507003506 69 14 6.0 15.0 0.00 0.00 0.00 75 1011.1
20260507003025 69 16 5.0 14.0 0.00 0.00 0.00 75 1011.1
20260507002504 69 13 6.0 14.0 0.00 0.00 0.00 75 1011.0
20260507002004 70 11 6.0 14.0 0.00 0.00 0.00 75 1010.9
20260507001526 70 15 6.0 13.0 0.00 0.00 0.00 74 1010.6
20260507001005 71 19 6.0 14.0 0.00 0.00 0.00 74 1010.5
20260507000505 71 22 5.0 14.0 0.00 0.00 0.00 73 1010.5
20260507000005 72 26 5.0 11.0 0.00 0.00 0.00 74 1010.3
20260506235505 72 22 6.0 12.0 0.00 0.00 0.00 74 1010.4
20260506235005 72 17 6.0 12.0 0.00 0.00 0.00 73 1010.4
20260506234505 72 23 6.0 12.0 0.00 0.00 0.00 73 1010.3
20260506234005 73 24 6.0 12.0 0.00 0.00 0.00 73 1010.2
20260506233505 73 18 5.0 12.0 0.00 0.00 0.00 72 1010.2
20260506233005 74 13 5.0 11.0 0.00 0.00 0.00 72 1010.1
20260506232505 74 14 6.0 12.0 0.00 0.00 0.00 72 1010.1
20260506232004 75 16 6.0 12.0 0.00 0.00 0.00 72 1010.0
20260506231505 75 16 6.0 13.0 0.00 0.00 0.00 72 1009.9
20260506231004 76 22 6.0 13.0 0.00 0.00 0.00 71 1010.0
20260506230525 76 33 7.0 15.0 0.00 0.00 0.00 72 1009.9
20260506230004 76 31 7.0 16.0 0.00 0.00 0.00 72 1009.8
20260506225504 77 29 7.0 16.0 0.00 0.00 0.00 72 1009.6
20260506225026 77 31 6.0 15.0 0.00 0.00 0.00 72 1009.4
20260506224504 77 26 7.0 15.0 0.00 0.00 0.00 72 1009.4
20260506224005 78 25 7.0 15.0 0.00 0.00 0.00 72 1009.3
20260506223505 78 32 7.0 14.0 0.00 0.00 0.00 72 1009.2
20260506223005 78 37 7.0 16.0 0.00 0.00 0.00 72 1009.1
20260506222504 79 35 6.0 16.0 0.00 0.00 0.00 72 1009.1
20260506222004 80 33 6.0 13.0 0.00 0.00 0.00 73 1009.2
20260506221526 80 35 6.0 12.0 0.00 0.00 0.00 74 1009.0
20260506221005 80 30 7.0 13.0 0.00 0.00 0.00 73 1009.0
20260506220504 81 31 6.0 13.0 0.00 0.00 0.00 72 1009.0
20260506220005 82 36 5.0 11.0 0.00 0.00 0.00 74 1008.9
20260506215505 82 36 5.0 11.0 0.00 0.00 0.00 73 1008.9
20260506215006 82 39 5.0 11.0 0.00 0.00 0.00 73 1008.8
20260506214504 82 43 5.0 10.0 0.00 0.00 0.00 74 1008.9
20260506214005 82 40 5.0 11.0 0.00 0.00 0.00 74 1008.8
20260506213526 82 35 6.0 11.0 0.00 0.00 0.00 73 1008.7
20260506213004 82 35 6.0 11.0 0.00 0.00 0.00 74 1008.6
20260506212525 83 33 5.0 11.0 0.00 0.00 0.00 73 1008.7
20260506212025 83 34 5.0 10.0 0.00 0.00 0.00 75 1008.7
20260506211504 82 41 5.0 11.0 0.00 0.00 0.00 75 1008.8
20260506211006 82 47 4.0 11.0 0.00 0.00 0.00 76 1008.8
20260506210525 82 42 4.0 11.0 0.00 0.00 0.00 75 1009.0
20260506210005 82 39 5.0 11.0 0.00 0.00 0.00 75 1008.9
20260506205504 82 40 4.0 10.0 0.00 0.00 0.00 75 1008.9
20260506205004 82 39 5.0 10.0 0.00 0.00 0.00 74 1009.0
20260506204504 82 34 5.0 10.0 0.00 0.00 0.00 75 1009.1
20260506204005 83 31 5.0 10.0 0.00 0.00 0.00 74 1009.0
20260506203504 83 33 4.0 14.0 0.00 0.00 0.00 75 1009.1
20260506203005 83 32 5.0 14.0 0.00 0.00 0.00 75 1009.2
20260506202505 83 29 5.0 11.0 0.00 0.00 0.00 74 1009.1
20260506202026 84 31 4.0 10.0 0.00 0.00 0.00 74 1009.1
20260506201504 84 46 4.0 10.0 0.00 0.00 0.00 74 1009.0
20260506201004 84 61 5.0 10.0 0.00 0.00 0.00 75 1009.0
20260506200526 84 71 5.0 10.0 0.00 0.00 0.00 75 1009.0
20260506200004 84 75 3.0 10.0 0.00 0.00 0.00 73 1009.0
20260506195504 84 67 3.0 8.0 0.00 0.00 0.00 74 1009.0
20260506195004 84 84 2.0 8.0 0.00 0.00 0.00 74 1009.1
20260506194526 84 86 3.0 9.0 0.00 0.00 0.00 75 1009.0
20260506194025 84 75 4.0 10.0 0.00 0.00 0.00 76 1009.0
20260506193506 84 61 3.0 10.0 0.00 0.00 0.00 76 1009.1
20260506193005 84 63 3.0 7.0 0.00 0.00 0.00 77 1009.1
20260506192504 83 73 4.0 9.0 0.00 0.00 0.00 76 1009.1
20260506192004 84 61 4.0 9.0 0.00 0.00 0.00 76 1009.1
20260506191504 84 56 4.0 9.0 0.00 0.00 0.00 74 1009.1
20260506191005 85 74 2.0 7.0 0.00 0.00 0.00 74 1009.3
20260506190526 85 74 2.0 6.0 0.00 0.00 0.00 72 1009.2
20260506190005 85 100 2.0 5.0 0.00 0.00 0.00 75 1009.3
20260506185504 84 153 3.0 6.0 0.00 0.00 0.00 73 1009.4
20260506185025 84 152 3.0 6.0 0.00 0.00 0.00 74 1009.4
20260506184505 84 92 2.0 7.0 0.00 0.00 0.00 74 1009.3
20260506184004 84 93 2.0 7.0 0.00 0.00 0.00 72 1009.4
20260506183505 84 107 2.0 6.0 0.00 0.00 0.00 74 1009.6
20260506183005 83 95 2.0 6.0 0.00 0.00 0.00 77 1009.6
20260506182504 83 79 2.0 6.0 0.00 0.00 0.00 76 1009.7
20260506182025 82 64 3.0 7.0 0.00 0.00 0.00 77 1009.9
20260506181525 82 57 2.0 7.0 0.00 0.00 0.00 77 1009.8
20260506181004 82 67 2.0 4.0 0.00 0.00 0.00 80 1009.9
20260506180504 82 73 2.0 4.0 0.00 0.00 0.00 79 1010.0
20260506180005 82 60 2.0 4.0 0.00 0.00 0.00 81 1010.0
20260506175526 81 48 2.0 5.0 0.00 0.00 0.00 81 1010.1
20260506175004 81 59 3.0 7.0 0.00 0.00 0.00 81 1010.1
20260506174504 81 56 3.0 7.0 0.00 0.00 0.00 81 1010.2
20260506174006 81 72 3.0 8.0 0.00 0.00 0.00 82 1010.2
20260506173525 81 78 4.0 8.0 0.00 0.00 0.00 82 1010.3
20260506173005 81 70 4.0 8.0 0.00 0.00 0.00 82 1010.4
20260506172504 81 66 4.0 9.0 0.00 0.00 0.00 83 1010.4
20260506172025 81 60 5.0 10.0 0.00 0.00 0.00 82 1010.4
20260506171506 81 64 5.0 10.0 0.00 0.00 0.00 84 1010.4
20260506171005 80 59 4.0 9.0 0.00 0.00 0.00 86 1010.5
20260506170504 79 46 3.0 9.0 0.00 0.00 0.00 86 1010.4
20260506170005 79 44 3.0 8.0 0.00 0.00 0.00 86 1010.5
20260506165525 79 50 3.0 8.0 0.00 0.00 0.00 87 1010.5
20260506165025 78 49 3.0 8.0 0.00 0.00 0.00 87 1010.6
20260506164504 78 33 4.0 8.0 0.00 0.00 0.00 87 1010.7
20260506164004 79 36 3.0 7.0 0.00 0.00 0.00 87 1010.6
20260506163504 78 43 4.0 9.0 0.00 0.00 0.00 87 1010.7
20260506163005 78 39 3.0 9.0 0.00 0.00 0.00 88 1010.7
20260506162504 78 52 4.0 8.0 0.00 0.00 0.00 88 1010.7
20260506162025 78 60 3.0 8.0 0.00 0.00 0.00 88 1010.6
20260506161504 78 53 2.0 5.0 0.00 0.00 0.00 89 1010.7
20260506161004 78 57 2.0 4.0 0.00 0.00 0.00 89 1010.7
20260506160504 78 71 3.0 7.0 0.00 0.00 0.00 89 1010.5
20260506160004 77 75 3.0 7.0 0.00 0.00 0.00 89 1010.4
20260506155504 77 66 3.0 6.0 0.00 0.00 0.00 89 1010.4
20260506155025 77 69 3.0 6.0 0.00 0.00 0.00 89 1010.3
20260506154504 77 77 3.0 6.0 0.00 0.00 0.00 90 1010.0
20260506154026 77 77 3.0 5.0 0.00 0.00 0.00 90 1009.9
20260506153504 77 77 3.0 5.0 0.00 0.00 0.00 90 1009.9
20260506153004 77 76 2.0 4.0 0.00 0.00 0.00 90 1009.8
20260506152504 77 73 2.0 6.0 0.00 0.00 0.00 90 1009.8
20260506152025 77 69 3.0 6.0 0.00 0.00 0.00 90 1009.8
20260506151504 77 66 3.0 5.0 0.00 0.00 0.00 91 1009.8
20260506151005 77 71 2.0 4.0 0.00 0.00 0.00 91 1009.7
20260506150504 76 74 2.0 4.0 0.00 0.00 0.00 91 1009.6
20260506150005 76 70 2.0 4.0 0.00 0.00 0.00 91 1009.6
20260506145504 76 73 2.0 4.0 0.00 0.00 0.00 92 1009.6
20260506145026 76 82 2.0 4.0 0.00 0.00 0.00 92 1009.7
20260506144504 76 79 1.0 4.0 0.00 0.00 0.00 93 1009.6
20260506144005 76 68 1.0 2.0 0.00 0.00 0.00 93 1009.5
20260506143504 75 68 0.0 2.0 0.00 0.00 0.00 93 1009.4
20260506143004 75 72 1.0 4.0 0.00 0.00 0.00 93 1009.3
20260506142505 75 77 2.0 4.0 0.00 0.00 0.00 93 1009.2
20260506142004 75 61 1.0 3.0 0.00 0.00 0.00 93 1009.3
20260506141504 75 34 1.0 3.0 0.00 0.00 0.00 93 1009.2
20260506141005 75 56 1.0 3.0 0.00 0.00 0.00 93 1009.0
20260506140504 75 56 1.0 4.0 0.00 0.00 0.00 93 1009.1
20260506140005 75 52 1.0 4.0 0.00 0.00 0.00 93 1008.8
20260506135525 75 68 1.0 2.0 0.00 0.00 0.00 93 1008.8
20260506135004 75 69 1.0 3.0 0.00 0.00 0.00 93 1008.5
20260506134504 75 73 2.0 4.0 0.00 0.00 0.00 93 1008.5
20260506134004 75 68 2.0 4.0 0.00 0.00 0.00 93 1008.4
20260506133504 75 68 1.0 3.0 0.00 0.00 0.00 93 1008.3
20260506133004 75 77 1.0 3.0 0.00 0.00 0.00 94 1008.5
20260506132525 74 76 2.0 3.0 0.00 0.00 0.00 94 1008.5
20260506132005 74 76 2.0 3.0 0.00 0.00 0.00 94 1008.5
20260506131504 74 84 2.0 4.0 0.00 0.00 0.00 94 1008.3
20260506131025 74 92 2.0 6.0 0.00 0.00 0.00 94 1008.3
20260506130525 74 89 2.0 6.0 0.00 0.00 0.00 94 1008.3
20260506130005 74 107 1.0 4.0 0.00 0.00 0.00 94 1008.5
20260506125504 74 161 0.0 4.0 0.00 0.00 0.00 94 1008.5
20260506125004 74 161 0.0 1.0 0.00 0.00 0.00 94 1008.5
20260506124526 74 161 0.0 1.0 0.00 0.00 0.00 94 1008.5
20260506124006 74 155 1.0 4.0 0.00 0.00 0.00 94 1008.5
20260506123504 74 151 2.0 4.0 0.00 0.00 0.00 94 1008.5
20260506123004 74 150 1.0 4.0 0.00 0.00 0.00 94 1008.3
20260506122525 74 161 0.0 2.0 0.00 0.00 0.00 94 1008.1
20260506122005 74 161 0.0 1.0 0.00 0.00 0.00 94 1008.1
20260506121525 73 161 0.0 2.0 0.00 0.00 0.00 94 1008.1
20260506121004 73 161 0.0 2.0 0.00 0.00 0.00 94 1008.2
20260506120504 73 161 0.0 2.0 0.00 0.00 0.00 94 1008.2
20260506120005 73 161 0.0 2.0 0.00 0.00 0.00 94 1008.1
20260506115504 73 161 0.0 2.0 0.00 0.00 0.00 93 1008.1
20260506115025 73 161 0.0 2.0 0.00 0.00 0.00 93 1008.2
20260506114504 73 0 0.0 0.0 0.00 0.00 0.00 93 1008.3
20260506114005 73 0 0.0 0.0 0.00 0.00 0.00 93 1008.2
20260506113504 73 161 0.0 1.0 0.00 0.00 0.00 93 1008.1
20260506113025 73 161 0.0 1.0 0.00 0.00 0.00 93 1008.1
20260506112504 73 161 0.0 1.0 0.00 0.00 0.00 93 1008.2
20260506112004 74 161 0.0 1.0 0.00 0.00 0.00 93 1008.1
20260506111504 74 161 0.0 2.0 0.00 0.00 0.00 93 1008.0
20260506111004 74 161 1.0 2.0 0.00 0.00 0.00 93 1008.0
20260506110504 74 160 1.0 4.0 0.00 0.00 0.00 93 1008.0
20260506110004 74 132 1.0 4.0 0.00 0.00 0.00 93 1008.0
20260506105504 74 81 0.0 2.0 0.00 0.00 0.00 92 1008.0
20260506105004 74 144 0.0 2.0 0.00 0.00 0.00 92 1008.0
20260506104525 74 176 1.0 2.0 0.00 0.00 0.00 92 1007.9
20260506104004 74 176 1.0 2.0 0.00 0.00 0.00 92 1007.8
20260506103504 74 184 1.0 4.0 0.00 0.00 0.00 92 1007.9
20260506103025 74 188 1.0 4.0 0.00 0.00 0.00 92 1007.8
20260506102504 74 194 1.0 3.0 0.00 0.00 0.00 92 1007.7
20260506102004 74 187 2.0 6.0 0.00 0.00 0.00 91 1007.8
20260506101504 74 177 3.0 6.0 0.00 0.00 0.00 91 1007.8
20260506101025 75 173 3.0 6.0 0.00 0.00 0.00 91 1007.8
20260506100504 75 177 4.0 9.0 0.00 0.00 0.00 91 1007.7
20260506100004 75 181 4.0 9.0 0.00 0.00 0.00 91 1007.6
20260506095504 75 183 4.0 8.0 0.00 0.00 0.00 91 1007.7
20260506095004 75 177 3.0 7.0 0.00 0.00 0.00 91 1007.7
20260506094503 75 171 3.0 8.0 0.00 0.00 0.00 91 1007.6
20260506094004 75 171 4.0 8.0 0.00 0.00 0.00 91 1007.6
20260506093504 75 174 4.0 7.0 0.00 0.00 0.00 91 1007.6
20260506093004 75 173 4.0 7.0 0.00 0.00 0.00 91 1007.6
20260506092504 75 169 3.0 7.0 0.00 0.00 0.00 90 1007.6
20260506092004 75 169 4.0 8.0 0.00 0.00 0.00 90 1007.7
20260506091525 75 167 4.0 8.0 0.00 0.00 0.00 90 1007.7
20260506091025 75 172 4.0 7.0 0.00 0.00 0.00 90 1007.8
20260506090504 75 177 3.0 7.0 0.00 0.00 0.00 90 1007.8
20260506090004 75 170 3.0 7.0 0.00 0.00 0.00 90 1007.7
20260506085504 75 169 3.0 7.0 0.00 0.00 0.00 90 1007.8
20260506085004 75 173 3.0 6.0 0.00 0.00 0.00 90 1007.7
20260506084525 75 174 3.0 6.0 0.00 0.00 0.00 89 1007.8
20260506084004 76 169 3.0 6.0 0.00 0.00 0.00 89 1007.8
20260506083525 76 165 3.0 9.0 0.00 0.00 0.00 89 1007.8
20260506083025 76 165 3.0 9.0 0.00 0.00 0.00 89 1007.6
20260506082525 76 167 3.0 6.0 0.00 0.00 0.00 89 1007.7
20260506082004 76 171 3.0 6.0 0.00 0.00 0.00 89 1007.7
20260506081505 76 177 4.0 7.0 0.00 0.00 0.00 89 1007.7
20260506081004 76 177 4.0 9.0 0.00 0.00 0.00 89 1007.6
20260506080504 76 178 4.0 9.0 0.00 0.00 0.00 89 1007.5
20260506073504 76 169 4.0 9.0 0.00 0.00 0.00 87 1008.0
20260506073004 76 166 3.0 7.0 0.00 0.00 0.00 88 1008.0
20260506072504 76 167 4.0 8.0 0.00 0.00 0.00 88 1007.9
20260506072004 76 163 4.0 8.0 0.00 0.00 0.00 87 1008.1
20260506071504 76 164 5.0 8.0 0.00 0.00 0.00 88 1008.1
20260506071004 76 166 4.0 8.0 0.00 0.00 0.00 88 1008.1
20260506070504 76 164 4.0 8.0 0.00 0.00 0.00 88 1008.1
20260506062504 76 167 6.0 14.0 0.00 0.00 0.00 88 1008.1
20260506062004 76 164 6.0 14.0 0.00 0.00 0.00 88 1008.1
20260506061504 76 161 5.0 11.0 0.00 0.00 0.00 88 1008.2
20260506061004 76 168 5.0 9.0 0.00 0.00 0.00 89 1008.2
20260506060504 76 164 5.0 9.0 0.00 0.00 0.00 89 1008.2
20260506051024 77 154 5.0 10.0 0.00 0.00 0.00 87 1008.1
20260506050503 77 157 5.0 14.0 0.00 0.00 0.00 87 1008.0
20260506045004 77 156 4.0 9.0 0.00 0.00 0.00 87 1008.2
20260506044504 77 155 4.0 9.0 0.00 0.00 0.00 87 1008.3
20260506044004 76 150 4.0 7.0 0.00 0.00 0.00 87 1008.2
20260506043503 76 146 4.0 9.0 0.00 0.00 0.00 87 1008.3
20260506043004 77 151 5.0 9.0 0.00 0.00 0.00 87 1008.3
20260506042504 77 149 5.0 8.0 0.00 0.00 0.00 87 1008.1
20260506042003 77 143 5.0 9.0 0.00 0.00 0.00 87 1008.0
20260506041503 77 144 5.0 10.0 0.00 0.00 0.00 87 1008.1
20260506041004 77 146 4.0 10.0 0.00 0.00 0.00 87 1008.1
20260506040503 77 152 4.0 11.0 0.00 0.00 0.00 87 1008.1
20260506040004 77 147 5.0 11.0 0.00 0.00 0.00 86 1008.0
20260506035504 77 145 5.0 10.0 0.00 0.00 0.00 86 1007.9
20260506035004 77 147 6.0 10.0 0.00 0.00 0.00 86 1007.7
20260506034504 77 146 6.0 11.0 0.00 0.00 0.00 86 1007.8
20260506034003 77 146 6.0 11.0 0.00 0.00 0.00 86 1007.6
20260506033503 77 149 6.0 14.0 0.00 0.00 0.00 86 1007.5
20260506033025 77 150 6.0 14.0 0.00 0.00 0.00 86 1007.5
20260506032503 78 147 6.0 10.0 0.00 0.00 0.00 86 1007.4
20260506032004 78 148 6.0 12.0 0.00 0.00 0.00 85 1007.5
20260506031504 78 146 6.0 12.0 0.00 0.00 0.00 85 1007.4
20260506031003 78 145 5.0 12.0 0.00 0.00 0.00 85 1007.3
20260506030503 78 147 5.0 9.0 0.00 0.00 0.00 85 1007.3
20260506030005 78 149 5.0 9.0 0.00 0.00 0.00 84 1007.2
20260506025525 78 148 5.0 9.0 0.00 0.00 0.00 84 1007.2
20260506025004 78 146 5.0 9.0 0.00 0.00 0.00 84 1007.2
20260506024504 79 144 5.0 8.0 0.00 0.00 0.00 84 1007.1
20260506024003 79 146 4.0 7.0 0.00 0.00 0.00 83 1007.0
20260506023525 79 152 4.0 9.0 0.00 0.00 0.00 83 1007.1
20260506023004 79 151 5.0 11.0 0.00 0.00 0.00 83 1007.1
20260506022503 79 148 5.0 11.0 0.00 0.00 0.00 83 1006.9
20260506022004 79 144 4.0 11.0 0.00 0.00 0.00 83 1006.6
20260506021504 79 136 3.0 6.0 0.00 0.00 0.00 83 1006.6
20260506021004 79 137 3.0 8.0 0.00 0.00 0.00 83 1006.5
20260506020503 80 138 4.0 10.0 0.00 0.00 0.00 82 1006.4
20260506020004 80 137 4.0 10.0 0.00 0.00 0.00 82 1006.4
20260506015524 80 134 4.0 8.0 0.00 0.00 0.00 81 1006.5
20260506015003 80 134 4.0 9.0 0.00 0.00 0.00 81 1006.4
20260506014504 80 133 4.0 9.0 0.00 0.00 0.00 80 1006.4
20260506014003 81 139 4.0 9.0 0.00 0.00 0.00 80 1006.3
20260506013504 81 141 4.0 9.0 0.00 0.00 0.00 80 1006.3
20260506013003 81 129 3.0 6.0 0.00 0.00 0.00 80 1006.2
20260506012505 81 135 3.0 8.0 0.00 0.00 0.00 79 1006.1
20260506012026 81 140 4.0 10.0 0.00 0.00 0.00 79 1006.1
20260506011505 82 139 4.0 10.0 0.00 0.00 0.00 79 1006.0
20260506011026 82 132 3.0 7.0 0.00 0.00 0.00 79 1006.0
20260506010505 82 130 3.0 10.0 0.00 0.00 0.00 78 1005.9
20260506010005 82 128 3.0 10.0 0.00 0.00 0.00 78 1005.8
20260506005526 82 127 3.0 7.0 0.00 0.00 0.00 77 1005.8
20260506005005 83 129 3.0 7.0 0.00 0.00 0.00 77 1005.7
20260506004505 83 121 3.0 7.0 0.00 0.00 0.00 76 1005.7